Regional Weather Roundup
Issued by NWS Midland/Odessa, TX

Home | Current Version | Previous Version | Text Only | Print | Product List | Glossary On
Versions: 1 2 3 4 5 6 7 8 9 10 11 12 13 14 15 16 17 18 19 20 21 22 23 24 25 26 27 28 29 30 31 32 33 34 35 36 37 38 39 40 41 42 43 44 45 46 47 48 49 50
000
ASUS44 KMAF 292210
RWRMAF
MIDLAND AREA WEATHER ROUNDUP
NATIONAL WEATHER SERVICE MIDLAND TX
500 PM CDT THU SEP 29 2016

...IN SOUTHWEST TEXAS AND SOUTHEAST NEW MEXICO...

CITY           SKY/WX    TMP DP  RH WIND       PRES   REMARKS
ALPINE         MOSUNNY   78  58  50 NE12      30.38F
ANDREWS        FAIR      78  48  34 E7        30.31F
ARTESIA        SUNNY     79  46  31 SE10      30.30F
BIG SPRING     SUNNY     78  49  36 NE10      30.31F
CARLSBAD       SUNNY     79  48  33 SE9       30.28F
DRYDEN           N/A     85  50  29 E10G18    30.20F
FORT STOCKTON  SUNNY     82  47  29 E10       30.27F
GUAD PASS      SUNNY     70  48  45 NE23      30.39F
HOBBS          SUNNY     75  46  35 E9G17     30.34S
MARFA          PTSUNNY   74  56  53 NE14      30.35S
MIDLAND AIRPK  SUNNY     82  45  27 E5        30.29F
MIDLAND INTL   SUNNY     82  49  31 E13       30.28F
ODESSA         SUNNY     81  48  31 E13       30.29F
PECOS          SUNNY     83  46  27 SE7       30.25S
PRESIDIO       NOT AVBL
SEMINOLE       SUNNY     76  49  39 E7        30.33F
SNYDER           N/A     75  47  37 NE10      30.30F
WINK           MOSUNNY   83  44  25 E13       30.25F
$$
...OTHER STATIONS IN TEXAS...

CITY           SKY/WX    TMP DP  RH WIND       PRES   REMARKS
ABILENE        SUNNY     75  48  38 NE8       30.28F
AMARILLO       SUNNY     76  46  34 SE7       30.34F
AUSTIN         MOSUNNY   84  51  31 NE16      30.15F
BROWNSVILLE    PTSUNNY   87  74  64 NE15      30.05S
CORPUS CHRISTI MOSUNNY   91  59  33 NE10      30.06F
DALLAS FTW     MOSUNNY   78  48  34 N9        30.21S
DEL RIO        SUNNY     89  57  33 N3        30.15S
EL PASO        MOSUNNY   86  40  19 S8G17     30.22F
HOUSTON INT    MOSUNNY   83  56  39 NE12      30.10F
LUBBOCK        PTSUNNY   77  46  33 E6        30.33F
SAN ANGELO     SUNNY     82  54  37 NE9       30.25F
SAN ANTONIO    MOSUNNY   88  56  33 N12       30.15S
WACO           SUNNY     81  48  31 N12       30.19S
WICHITA FALLS  NOT AVBL
$$
...OTHER LOCATIONS IN NEW MEXICO...

CITY           SKY/WX    TMP DP  RH WIND       PRES   REMARKS
ALAMAGORDO     SUNNY     84  39  20 SW15G23   30.25F
ALBUQUERQUE    MOSUNNY   81  42  25 CALM      30.30F
CANNON AFB     NOT AVBL
CLOVIS         SUNNY     75  48  38 SE9       30.36S
HOLLOMAN AFB   SUNNY     85  40  20 S17G23    30.22F
ROSWELL        PTSUNNY   79  44  28 S10       30.31F
RUIDOSO        CLOUDY    66  39  37 SE15G21   30.47S
SANTA FE       CLOUDY    77  36  22 S14G26    30.38F
TRUTH OR CONSE MOSUNNY   80  49  33 SE12      30.26F
TUCUMCARI      SUNNY     83  37  19 S14G20    30.30F
$$




USA.gov is the U.S. government's official web portal to all federal, state and local government web resources and services.